Escatawpa, MS

7:50 AM CDT on September 30, 2016 (GMT -0500)
Lott International

Weather History for KPQL - June, 2013

Change the Weather History Date:

Tuesday, June 4, 2013

  Actual Average Record
Temperature  
Mean Temperature 78 °F -  
Max Temperature 89 °F 87 °F 100 °F (2011)
Min Temperature 69 °F 70 °F 51 °F (1970)
Cooling Degree Days 14    
Growing Degree Days 28 (Base 50)    
Moisture  
Dew Point 71 °F    
Average Humidity 86    
Maximum Humidity 100    
Minimum Humidity 59    
Precipitation  
Precipitation 0.00 in - - ()
Sea Level Pressure  
Sea Level Pressure 29.92 in    
Wind  
Wind Speed 2 mph (SE)    
Max Wind Speed 15 mph    
Max Gust Speed 18 mph    
Visibility 5 miles    
Events Fog    
Averages and records for this station are not official NWS values.
T = Trace of Precipitation, MM = Missing Value Source: NWS Daily Summary

Daily Weather History Graph

Daily Weather History Graph

Search for Another Location

Airport or City:

Trip Planner

Search our weather history database for the weather conditions in past years. The results will help you decide how hot, cold, wet, or windy it might be!

Date:

Astronomy

Jun. 04, 2013 Rise Set
Actual Time 5:51 AM CDT 7:53 PM CDT
Civil Twilight 5:24 AM CDT 8:20 PM CDT
Nautical Twilight 4:51 AM CDT 8:54 PM CDT
Astronomical Twilight 4:15 AM CDT 9:29 PM CDT
Moon 3:08 AM CDT (6/4) 4:33 PM CDT (6/4)
Length of Visible Light 14h 56m
Length of Day
14h 01m
Waning Crescent, 14% of the Moon is Illuminated
Jun 4
Waning Crescent
Jun 8
New
Jun 16
First Quarter
Jun 23
Full
Jun 29
Last Quarter

Hourly Weather History & Observations

Time (CDT) Temp. Heat Index Dew Point Humidity Pressure Visibility Wind Dir Wind Speed Gust Speed Precip Events Conditions
12:30 AM 73.4 °F - 71.6 °F 94% 29.91 in 1.8 mi Calm Calm - N/A   Partly Cloudy
12:40 AM 73.4 °F - 71.6 °F 94% 29.91 in 3.0 mi Calm Calm - N/A   Partly Cloudy
12:51 AM 71.6 °F - 71.6 °F 100% 29.91 in 1.8 mi North 3.5 mph - N/A   Partly Cloudy
12:53 AM 72.0 °F - 71.1 °F 97% 29.91 in 1.2 mi North 3.5 mph - N/A   Partly Cloudy
1:03 AM 73.4 °F - 71.6 °F 94% 29.91 in 4.0 mi Calm Calm - N/A   Partly Cloudy
1:44 AM 71.6 °F - 71.6 °F 100% 29.91 in 1.5 mi Calm Calm - N/A   Clear
1:53 AM 72.0 °F - 71.1 °F 97% 29.91 in 1.0 mi Calm Calm - N/A   Mist
2:03 AM 71.6 °F - 71.6 °F 100% 29.90 in 0.8 mi Calm Calm - N/A   Mist
2:07 AM 71.6 °F - 69.8 °F 94% 29.90 in 1.5 mi Calm Calm - N/A   Partly Cloudy
2:11 AM 71.6 °F - 69.8 °F 94% 29.90 in 3.0 mi Calm Calm - N/A   Partly Cloudy
2:18 AM 71.6 °F - 71.6 °F 100% 29.90 in 2.0 mi Calm Calm - N/A   Scattered Clouds
2:24 AM 71.6 °F - 71.6 °F 100% 29.90 in 1.2 mi Calm Calm - N/A   Mostly Cloudy
2:37 AM 71.6 °F - 71.6 °F 100% 29.90 in 3.0 mi Calm Calm - N/A   Mostly Cloudy
2:50 AM 71.6 °F - 71.6 °F 100% 29.90 in 2.5 mi Calm Calm - N/A   Scattered Clouds
2:53 AM 72.0 °F - 71.1 °F 97% 29.90 in 1.8 mi Calm Calm - N/A   Scattered Clouds
3:34 AM 71.6 °F - 69.8 °F 94% 29.90 in 0.8 mi Calm Calm - N/A   Clear
3:49 AM 71.6 °F - 69.8 °F 94% 29.90 in 2.5 mi Calm Calm - N/A   Clear
3:50 AM 71.6 °F - 69.8 °F 94% 29.90 in 3.0 mi Calm Calm - N/A   Clear
3:53 AM 71.1 °F - 70.0 °F 96% 29.91 in 3.0 mi Calm Calm - N/A   Clear
4:00 AM 71.6 °F - 69.8 °F 94% 29.90 in 1.8 mi Calm Calm - N/A   Clear
4:10 AM 69.8 °F - 69.8 °F 100% 29.90 in 0.5 mi Calm Calm - N/A Fog Fog
4:27 AM 69.8 °F - 69.8 °F 100% 29.91 in 1.2 mi Calm Calm - N/A   Partly Cloudy
4:38 AM 71.6 °F - 69.8 °F 94% 29.91 in 0.8 mi Calm Calm - N/A   Clear
4:53 AM 70.0 °F - 69.1 °F 97% 29.92 in 1.0 mi Calm Calm - N/A   Clear
5:00 AM 69.8 °F - 69.8 °F 100% 29.92 in 0.5 mi Calm Calm - N/A Fog Fog
5:16 AM 69.8 °F - 68.0 °F 94% 29.92 in 0.2 mi Calm Calm - N/A Fog Fog
5:29 AM 69.8 °F - 69.8 °F 100% 29.92 in 0.5 mi Calm Calm - N/A Fog Fog
5:46 AM 69.8 °F - 69.8 °F 100% 29.92 in 0.5 mi Calm Calm - N/A Fog Fog
5:53 AM 69.1 °F - 68.0 °F 96% 29.93 in 0.2 mi Calm Calm - N/A Fog Fog
6:03 AM 69.8 °F - 68.0 °F 94% 29.93 in 0.2 mi Calm Calm - N/A Fog Fog
6:10 AM 69.8 °F - 69.8 °F 100% 29.93 in 1.8 mi Calm Calm - N/A   Scattered Clouds
6:17 AM 69.8 °F - 69.8 °F 100% 29.94 in 8.0 mi Calm Calm - N/A   Mostly Cloudy
6:53 AM 73.9 °F - 73.0 °F 97% 29.95 in 9.0 mi Calm Calm - N/A   Clear
7:53 AM 79.0 °F - 73.9 °F 84% 29.94 in 10.0 mi East 3.5 mph - N/A   Clear
8:53 AM 82.9 °F 89.4 °F 73.9 °F 74% 29.95 in 10.0 mi ENE 5.8 mph - N/A   Partly Cloudy
9:53 AM 84.0 °F 90.2 °F 73.0 °F 69% 29.94 in 10.0 mi ESE 4.6 mph - N/A   Mostly Cloudy
10:12 AM 84.2 °F 90.9 °F 73.4 °F 70% 29.95 in 10.0 mi ESE 5.8 mph - N/A   Scattered Clouds
10:32 AM 86.0 °F 91.8 °F 71.6 °F 62% 29.95 in 10.0 mi SE 6.9 mph - N/A   Mostly Cloudy
10:42 AM 86.0 °F 91.8 °F 71.6 °F 62% 29.95 in 10.0 mi Variable 3.5 mph - N/A   Mostly Cloudy
10:53 AM 87.1 °F 93.6 °F 72.0 °F 61% 29.95 in 10.0 mi SE 6.9 mph - N/A   Scattered Clouds
11:53 AM 88.0 °F 94.7 °F 72.0 °F 59% 29.95 in 10.0 mi SSE 10.4 mph - N/A   Partly Cloudy
12:53 PM 88.0 °F 94.7 °F 72.0 °F 59% 29.94 in 10.0 mi Variable 6.9 mph - N/A   Mostly Cloudy
1:53 PM 87.1 °F 94.5 °F 73.0 °F 63% 29.94 in 10.0 mi South 11.5 mph 18.4 mph N/A   Overcast
2:53 PM 88.0 °F 95.6 °F 73.0 °F 61% 29.92 in 10.0 mi SSE 15.0 mph - N/A   Clear
3:53 PM 87.1 °F 94.5 °F 73.0 °F 63% 29.91 in 10.0 mi South 13.8 mph - N/A   Clear
4:53 PM 86.0 °F 92.2 °F 72.0 °F 63% 29.91 in 10.0 mi SSE 11.5 mph - N/A   Clear
5:53 PM 84.9 °F 91.4 °F 73.0 °F 67% 29.91 in 10.0 mi SE 9.2 mph - N/A   Partly Cloudy
6:17 PM 84.2 °F 90.9 °F 73.4 °F 70% 29.90 in 10.0 mi SE 9.2 mph - N/A   Mostly Cloudy
6:35 PM 82.4 °F 88.2 °F 73.4 °F 74% 29.89 in 10.0 mi SE 10.4 mph - N/A   Scattered Clouds
6:53 PM 82.9 °F 88.8 °F 73.0 °F 72% 29.90 in 10.0 mi SE 10.4 mph - N/A   Partly Cloudy
7:53 PM 80.1 °F 84.2 °F 73.0 °F 79% 29.92 in 10.0 mi SE 8.1 mph - N/A   Clear
8:53 PM 79.0 °F - 73.9 °F 84% 29.92 in 10.0 mi Calm Calm - N/A   Clear
9:53 PM 79.0 °F - 73.9 °F 84% 29.95 in 10.0 mi Calm Calm - N/A   Scattered Clouds
10:06 PM 78.8 °F - 73.4 °F 83% 29.95 in 10.0 mi Calm Calm - N/A   Mostly Cloudy
10:18 PM 78.8 °F - 73.4 °F 83% 29.95 in 10.0 mi SSE 3.5 mph - N/A   Scattered Clouds
10:53 PM 78.1 °F - 73.0 °F 84% 29.95 in 10.0 mi SE 5.8 mph - N/A   Partly Cloudy
11:53 PM 78.1 °F - 73.9 °F 87% 29.95 in 10.0 mi SSE 4.6 mph - N/A   Scattered Clouds